sat.trackr.live / text

‹ back to catalog

STARLINK-32742

NORAD 62605 · 2025-008U

PAYLOAD ACTIVE UNKNOWN

§ Identity

Operator
Country
US
Launch date
2025-01-13
Launch site
AFETR
Launch vehicle
Mass (kg)
RCS (m²)

Purposes: comms

External: N2YO · Heavens-Above · Gunter

§ Orbital elements

Epoch: 2026-09-21T08:45:32.602752Z

Period
94.27 min
Inclination
43.0027°
Eccentricity
0.0001491
Mean motion
15.27593496 rev/d
Perigee alt
482.0 km
Apogee alt
484.0 km
Semi-major
6,861.1 km
B*
3.8498e-4
RAAN
252.5685°
Arg perigee
273.8152°
Mean anomaly
86.2529°
Rev number
9,554

§ Raw data

STARLINK-327421 62605U 25008U   26264.36496068  .00010351  00000+0  38498-3 0  99902 62605  43.0027 252.5685 0001491 273.8152  86.2529 15.27593496 95549

JSON: /api/v1/satellites/62605 · /tle

For live sub-satellite position, see the globe view (requires WebGL).

§ Visibility from observer

Set your observer location to see the next 7 days of passes ≥ 10°. The values pass through the URL so the page stays shareable.

No JS? Fill the form by hand. The geolocation button needs JavaScript.